Time,TemperatureF,DewpointF,PressureIn,WindDirection,WindDirectionDegrees,WindSpeedMPH,WindSpeedGustMPH,Humidity,HourlyPrecipIn,Conditions,Clouds,dailyrainin,SoftwareType,DateUTC
2013-05-28 00:05:00,42.4,41.0,29.75,SSE,154,2.0,2.0,94,0.00,,,0.00,weatherlink.com 1.10,2013-05-28 09:05:00,
2013-05-28 00:20:00,42.2,41.0,29.75,SSE,154,0.0,4.0,94,0.00,,,0.00,weatherlink.com 1.10,2013-05-28 09:20:00,
2013-05-28 00:35:00,42.0,40.0,29.75,SSE,153,0.0,4.0,94,0.00,,,0.00,weatherlink.com 1.10,2013-05-28 09:35:00,
2013-05-28 00:50:00,41.8,40.0,29.75,SSE,153,2.0,5.0,94,0.00,,,0.00,weatherlink.com 1.10,2013-05-28 09:50:00,
2013-05-28 01:05:00,41.5,40.0,29.75,SSE,153,1.0,4.0,94,0.00,,,0.00,weatherlink.com 1.10,2013-05-28 10:05:00,
2013-05-28 01:20:00,41.4,40.0,29.75,SSE,153,0.0,4.0,95,0.00,,,0.00,weatherlink.com 1.10,2013-05-28 10:20:00,
2013-05-28 01:35:00,41.2,40.0,29.75,SSE,153,0.0,4.0,95,0.00,,,0.00,weatherlink.com 1.10,2013-05-28 10:35:00,
2013-05-28 01:51:00,41.1,40.0,29.75,SSE,153,0.0,2.0,95,0.00,,,0.00,weatherlink.com 1.10,2013-05-28 10:51:00,
2013-05-28 02:06:00,40.9,40.0,29.75,SSE,153,2.0,5.0,95,0.00,,,0.00,weatherlink.com 1.10,2013-05-28 11:06:00,
2013-05-28 02:21:00,40.8,40.0,29.74,SSE,153,2.0,4.0,95,0.00,,,0.00,weatherlink.com 1.10,2013-05-28 11:21:00,
2013-05-28 02:36:00,40.7,39.0,29.74,SSE,153,2.0,3.0,95,0.00,,,0.00,weatherlink.com 1.10,2013-05-28 11:36:00,
2013-05-28 02:51:00,40.6,39.0,29.74,SSE,153,2.0,5.0,95,0.00,,,0.00,weatherlink.com 1.10,2013-05-28 11:51:00,
2013-05-28 03:06:00,40.2,39.0,29.73,SSE,153,5.0,6.0,96,0.00,,,0.00,weatherlink.com 1.10,2013-05-28 12:06:00,
2013-05-28 03:21:00,40.0,39.0,29.73,SSE,153,1.0,5.0,95,0.00,,,0.00,weatherlink.com 1.10,2013-05-28 12:21:00,
2013-05-28 03:36:00,39.9,39.0,29.73,SSE,153,5.0,5.0,96,0.00,,,0.00,weatherlink.com 1.10,2013-05-28 12:36:00,
2013-05-28 03:51:00,39.9,39.0,29.73,SSE,153,0.0,4.0,96,0.00,,,0.00,weatherlink.com 1.10,2013-05-28 12:51:00,
2013-05-28 04:06:00,39.9,39.0,29.73,SSE,153,4.0,5.0,96,0.00,,,0.00,weatherlink.com 1.10,2013-05-28 13:06:00,
2013-05-28 04:21:00,39.7,39.0,29.73,SSE,151,4.0,6.0,96,0.00,,,0.00,weatherlink.com 1.10,2013-05-28 13:21:00,
2013-05-28 04:36:00,39.5,39.0,29.72,SSE,151,4.0,6.0,96,0.00,,,0.00,weatherlink.com 1.10,2013-05-28 13:36:00,
2013-05-28 04:51:00,39.2,38.0,29.72,SSE,151,5.0,7.0,96,0.00,,,0.00,weatherlink.com 1.10,2013-05-28 13:51:00,
2013-05-28 05:06:00,39.1,38.0,29.72,SSE,151,7.0,7.0,96,0.00,,,0.00,weatherlink.com 1.10,2013-05-28 14:06:00,
2013-05-28 05:21:00,39.0,38.0,29.72,SSE,151,5.0,6.0,96,0.00,,,0.00,weatherlink.com 1.10,2013-05-28 14:21:00,
2013-05-28 05:36:00,38.9,38.0,29.72,SSE,151,4.0,6.0,96,0.00,,,0.00,weatherlink.com 1.10,2013-05-28 14:36:00,
2013-05-28 05:51:00,39.0,38.0,29.72,SSE,151,5.0,6.0,97,0.00,,,0.00,weatherlink.com 1.10,2013-05-28 14:51:00,
2013-05-28 06:06:00,38.8,38.0,29.72,SSE,152,3.0,6.0,97,0.00,,,0.00,weatherlink.com 1.10,2013-05-28 15:06:00,
2013-05-28 06:21:00,38.8,38.0,29.72,SSE,152,4.0,5.0,96,0.00,,,0.00,weatherlink.com 1.10,2013-05-28 15:21:00,
2013-05-28 06:36:00,38.7,38.0,29.71,SSE,152,1.0,5.0,97,0.00,,,0.00,weatherlink.com 1.10,2013-05-28 15:36:00,
2013-05-28 06:51:00,38.6,38.0,29.71,SSE,152,2.0,2.0,97,0.00,,,0.00,weatherlink.com 1.10,2013-05-28 15:51:00,
2013-05-28 07:06:00,38.6,38.0,29.71,SSE,152,2.0,4.0,97,0.00,,,0.00,weatherlink.com 1.10,2013-05-28 16:06:00,
2013-05-28 07:21:00,38.6,38.0,29.70,SSE,152,4.0,5.0,97,0.00,,,0.00,weatherlink.com 1.10,2013-05-28 16:21:00,
2013-05-28 07:36:00,38.7,38.0,29.70,SSE,152,2.0,5.0,97,0.00,,,0.00,weatherlink.com 1.10,2013-05-28 16:36:00,
2013-05-28 07:51:00,38.9,38.0,29.70,SSE,152,0.0,2.0,97,0.00,,,0.00,weatherlink.com 1.10,2013-05-28 16:51:00,
2013-05-28 08:06:00,39.5,39.0,29.70,SSE,152,2.0,4.0,97,0.00,,,0.00,weatherlink.com 1.10,2013-05-28 17:06:00,
2013-05-28 08:21:00,39.7,39.0,29.69,SSE,152,2.0,3.0,97,0.00,,,0.00,weatherlink.com 1.10,2013-05-28 17:21:00,
2013-05-28 08:36:00,39.9,39.0,29.69,SSE,152,2.0,3.0,97,0.00,,,0.00,weatherlink.com 1.10,2013-05-28 17:36:00,
2013-05-28 08:52:00,40.2,39.0,29.69,SSE,152,0.0,4.0,97,0.00,,,0.00,weatherlink.com 1.10,2013-05-28 17:52:00,
2013-05-28 09:07:00,40.2,39.0,29.68,WSW,254,4.0,5.0,97,0.00,,,0.00,weatherlink.com 1.10,2013-05-28 18:07:00,
2013-05-28 09:22:00,40.4,40.0,29.68,WSW,254,4.0,5.0,97,0.00,,,0.00,weatherlink.com 1.10,2013-05-28 18:22:00,
2013-05-28 09:37:00,40.9,40.0,29.68,West,277,4.0,6.0,97,0.00,,,0.00,weatherlink.com 1.10,2013-05-28 18:37:00,
2013-05-28 09:52:00,41.4,41.0,29.68,West,275,6.0,7.0,97,0.00,,,0.00,weatherlink.com 1.10,2013-05-28 18:52:00,
2013-05-28 10:07:00,41.2,40.0,29.67,West,276,9.0,9.0,97,0.00,,,0.00,weatherlink.com 1.10,2013-05-28 19:07:00,
2013-05-28 10:22:00,40.6,40.0,29.67,West,265,9.0,11.0,97,0.00,,,0.00,weatherlink.com 1.10,2013-05-28 19:22:00,
2013-05-28 10:37:00,40.7,40.0,29.67,West,269,9.0,12.0,97,0.00,,,0.00,weatherlink.com 1.10,2013-05-28 19:37:00,
2013-05-28 10:52:00,40.6,40.0,29.67,West,278,7.0,10.0,97,0.00,,,0.00,weatherlink.com 1.10,2013-05-28 19:52:00,
2013-05-28 11:07:00,41.1,40.0,29.66,WSW,251,3.0,10.0,97,0.00,,,0.00,weatherlink.com 1.10,2013-05-28 20:07:00,
2013-05-28 11:22:00,41.6,41.0,29.66,WNW,295,3.0,9.0,97,0.00,,,0.00,weatherlink.com 1.10,2013-05-28 20:22:00,
2013-05-28 11:37:00,41.9,41.0,29.66,West,269,5.0,9.0,97,0.00,,,0.00,weatherlink.com 1.10,2013-05-28 20:37:00,
2013-05-28 11:52:00,42.6,42.0,29.66,WNW,287,5.0,9.0,97,0.00,,,0.00,weatherlink.com 1.10,2013-05-28 20:52:00,
2013-05-28 12:07:00,42.9,42.0,29.66,West,281,6.0,9.0,97,0.00,,,0.00,weatherlink.com 1.10,2013-05-28 21:07:00,
2013-05-28 12:22:00,43.5,43.0,29.66,West,275,6.0,7.0,96,0.00,,,0.00,weatherlink.com 1.10,2013-05-28 21:22:00,
2013-05-28 12:37:00,44.0,43.0,29.65,WNW,286,7.0,7.0,95,0.00,,,0.00,weatherlink.com 1.10,2013-05-28 21:37:00,
2013-05-28 12:52:00,44.7,43.0,29.65,WNW,289,6.0,9.0,94,0.00,,,0.00,weatherlink.com 1.10,2013-05-28 21:52:00,
2013-05-28 13:07:00,45.3,43.0,29.64,NW,315,7.0,9.0,92,0.00,,,0.00,weatherlink.com 1.10,2013-05-28 22:07:00,
2013-05-28 13:22:00,45.9,43.0,29.64,WNW,302,6.0,9.0,90,0.00,,,0.00,weatherlink.com 1.10,2013-05-28 22:22:00,
2013-05-28 13:37:00,45.9,43.0,29.64,WNW,295,5.0,10.0,90,0.00,,,0.00,weatherlink.com 1.10,2013-05-28 22:37:00,
2013-05-28 13:53:00,46.1,43.0,29.64,WNW,286,3.0,10.0,90,0.00,,,0.00,weatherlink.com 1.10,2013-05-28 22:53:00,
2013-05-28 14:08:00,46.5,43.0,29.64,WNW,298,4.0,10.0,88,0.00,,,0.00,weatherlink.com 1.10,2013-05-28 23:08:00,
2013-05-28 14:23:00,46.7,43.0,29.64,West,269,2.0,8.0,87,0.00,,,0.00,weatherlink.com 1.10,2013-05-28 23:23:00,
2013-05-28 14:38:00,48.9,44.0,29.64,NW,305,4.0,7.0,84,0.00,,,0.00,weatherlink.com 1.10,2013-05-28 23:38:00,
2013-05-28 14:53:00,48.4,43.0,29.64,West,270,5.0,9.0,82,0.00,,,0.00,weatherlink.com 1.10,2013-05-28 23:53:00,
2013-05-28 15:08:00,48.4,43.0,29.63,WNW,286,6.0,8.0,82,0.00,,,0.00,weatherlink.com 1.10,2013-05-29 00:08:00,
2013-05-28 15:23:00,48.7,43.0,29.63,WNW,298,5.0,8.0,82,0.00,,,0.00,weatherlink.com 1.10,2013-05-29 00:23:00,
2013-05-28 15:38:00,50.3,44.0,29.63,NW,313,8.0,9.0,79,0.00,,,0.00,weatherlink.com 1.10,2013-05-29 00:38:00,
2013-05-28 15:53:00,54.2,45.0,29.63,NW,322,7.0,9.0,71,0.00,,,0.00,weatherlink.com 1.10,2013-05-29 00:53:00,
2013-05-28 16:08:00,55.6,45.0,29.63,NW,305,4.0,8.0,67,0.00,,,0.00,weatherlink.com 1.10,2013-05-29 01:08:00,
2013-05-28 16:23:00,55.9,44.0,29.63,NW,312,3.0,8.0,65,0.00,,,0.00,weatherlink.com 1.10,2013-05-29 01:23:00,
2013-05-28 16:38:00,57.5,44.0,29.63,NNW,331,6.0,8.0,61,0.00,,,0.00,weatherlink.com 1.10,2013-05-29 01:38:00,
2013-05-28 16:53:00,57.8,43.0,29.62,WNW,285,4.0,7.0,59,0.00,,,0.00,weatherlink.com 1.10,2013-05-29 01:53:00,
2013-05-28 17:08:00,57.6,43.0,29.62,WNW,292,5.0,7.0,59,0.00,,,0.00,weatherlink.com 1.10,2013-05-29 02:08:00,
2013-05-28 17:23:00,57.1,43.0,29.62,WNW,289,5.0,7.0,59,0.00,,,0.00,weatherlink.com 1.10,2013-05-29 02:23:00,
2013-05-28 17:39:00,58.4,43.0,29.61,WNW,298,7.0,7.0,56,0.00,,,0.00,weatherlink.com 1.10,2013-05-29 02:39:00,
2013-05-28 17:54:00,58.6,42.0,29.61,WNW,284,5.0,8.0,55,0.00,,,0.00,weatherlink.com 1.10,2013-05-29 02:54:00,
2013-05-28 18:09:00,58.6,42.0,29.61,WNW,288,5.0,7.0,55,0.00,,,0.00,weatherlink.com 1.10,2013-05-29 03:09:00,
2013-05-28 18:24:00,56.7,43.0,29.61,NW,311,6.0,7.0,60,0.00,,,0.00,weatherlink.com 1.10,2013-05-29 03:24:00,
2013-05-28 18:39:00,55.9,42.0,29.61,NW,313,5.0,8.0,61,0.00,,,0.00,weatherlink.com 1.10,2013-05-29 03:39:00,
2013-05-28 18:54:00,55.9,42.0,29.61,NNW,338,6.0,7.0,61,0.00,,,0.00,weatherlink.com 1.10,2013-05-29 03:54:00,
2013-05-28 19:09:00,56.4,42.0,29.61,NW,313,5.0,6.0,59,0.00,,,0.00,weatherlink.com 1.10,2013-05-29 04:09:00,
2013-05-28 19:24:00,58.9,43.0,29.60,WNW,303,3.0,6.0,55,0.00,,,0.00,weatherlink.com 1.10,2013-05-29 04:24:00,
2013-05-28 19:39:00,58.9,45.0,29.60,WSW,253,0.0,5.0,60,0.00,,,0.00,weatherlink.com 1.10,2013-05-29 04:39:00,
2013-05-28 19:54:00,55.4,43.0,29.60,WSW,253,1.0,2.0,63,0.00,,,0.00,weatherlink.com 1.10,2013-05-29 04:54:00,
2013-05-28 20:09:00,56.2,42.0,29.60,WSW,253,0.0,1.0,60,0.00,,,0.00,weatherlink.com 1.10,2013-05-29 05:09:00,
2013-05-28 20:24:00,57.1,43.0,29.60,WSW,253,0.0,2.0,60,0.00,,,0.00,weatherlink.com 1.10,2013-05-29 05:24:00,
2013-05-28 20:39:00,56.9,44.0,29.61,WSW,253,0.0,2.0,63,0.00,,,0.00,weatherlink.com 1.10,2013-05-29 05:39:00,
2013-05-28 20:54:00,56.6,46.0,29.61,WSW,253,0.0,1.0,67,0.00,,,0.00,weatherlink.com 1.10,2013-05-29 05:54:00,
2013-05-28 21:09:00,55.7,45.0,29.61,WSW,253,1.0,1.0,68,0.00,,,0.00,weatherlink.com 1.10,2013-05-29 06:09:00,
2013-05-28 21:24:00,54.8,45.0,29.60,WSW,253,0.0,2.0,70,0.00,,,0.00,weatherlink.com 1.10,2013-05-29 06:24:00,
2013-05-28 21:39:00,54.3,45.0,29.60,WSW,253,0.0,2.0,71,0.00,,,0.00,weatherlink.com 1.10,2013-05-29 06:39:00,
2013-05-28 21:54:00,52.2,44.0,29.61,WSW,249,0.0,1.0,74,0.00,,,0.00,weatherlink.com 1.10,2013-05-29 06:54:00,
2013-05-28 22:09:00,50.7,44.0,29.61,South,178,2.0,4.0,78,0.00,,,0.00,weatherlink.com 1.10,2013-05-29 07:09:00,
2013-05-28 22:24:00,50.9,44.0,29.61,NW,325,0.0,2.0,78,0.00,,,0.00,weatherlink.com 1.10,2013-05-29 07:24:00,
2013-05-28 22:39:00,50.1,44.0,29.61,NW,325,0.0,1.0,79,0.00,,,0.00,weatherlink.com 1.10,2013-05-29 07:39:00,
2013-05-28 22:54:00,49.7,44.0,29.61,NW,325,0.0,1.0,80,0.00,,,0.00,weatherlink.com 1.10,2013-05-29 07:54:00,
2013-05-28 23:09:00,49.5,44.0,29.61,NW,325,0.0,4.0,80,0.00,,,0.00,weatherlink.com 1.10,2013-05-29 08:09:00,
2013-05-28 23:24:00,48.9,43.0,29.61,NW,325,0.0,0.0,81,0.00,,,0.00,weatherlink.com 1.10,2013-05-29 08:24:00,
2013-05-28 23:39:00,48.4,43.0,29.61,NW,325,0.0,0.0,82,0.00,,,0.00,weatherlink.com 1.10,2013-05-29 08:39:00,
2013-05-28 23:54:00,48.5,43.0,29.62,ESE,109,0.0,1.0,81,0.00,,,0.00,weatherlink.com 1.10,2013-05-29 08:54:00,